Temperature
15 15 15 16 16 17 18 20 22 22 23 23 23 24 23 22 21 19 17 17 17 17 17 17 16 16 16 16 16 16 16 16 16 16 16 16 16 16 16 15 15 16 16 16 16 15 15 15 15
15 15 15 16 16 17 18 20 21 22 23 22 22 22 22 21 19 18 17 17 16 17 17 16 16 16 16 16 16 16 16 16 16 16 16 16 15 15 15 15 15 15 15 15 15 15 15 15 15
14 14 16 16 17 18 19 21 21 22 22 22 22 21 21 20 18 17 17 16 16 16 16 16 16 16 16 16 16 16 16 16 16 15 15 15 15 15 15 15 15 15 15 15 15 15 15 15 15
13 14 16 16 17 19 20 21 21 21 21 21 21 20 19 18 17 17 17 16 15 15 15 16 16 15 15 16 16 16 16 16 15 15 15 15 15 15 15 15 15 15 15 15 15 15 15 15 15
13 15 15 15 17 19 20 21 21 21 20 20 20 20 18 17 17 17 16 16 15 15 15 15 15 15 15 15 15 15 15 15 15 15 15 15 15 15 15 15 15 15 15 15 15 15 15 15 15
14 15 15 15 17 19 20 21 20 20 20 20 19 19 17 16 17 16 16 15 15 15 15 15 15 15 15 15 15 15 15 15 15 15 15 15 15 15 15 15 15 15 15 15 15 15 15 15 15
14 14 15 16 17 18 19 20 20 19 19 19 19 18 16 15 16 15 15 15 14 14 14 14 14 15 15 15 15 15 15 15 15 15 15 14 15 15 15 14 14 15 15 15 15 15 15 15 15
13 14 15 16 17 17 19 19 19 19 18 18 18 17 15 15 15 15 15 14 14 14 14 14 14 14 14 14 14 14 14 14 14 14 14 14 14 14 14 14 14 15 15 15 15 15 15 15 14
12 12 13 15 16 16 17 17 18 17 17 17 16 16 15 14 14 14 14 14 14 14 14 14 14 14 14 14 14 14 14 14 14 14 14 14 14 14 14 14 14 14 14 14 14 14 14 14 14
12 11 13 15 15 15 16 16 16 17 16 16 15 14 14 13 13 13 13 13 13 13 13 13 14 14 13 13 14 14 13 13 13 13 13 13 13 13 14 14 14 14 14 14 14 14 14 14 13
12 11 13 14 14 14 14 15 15 15 14 14 14 13 13 12 12 12 12 12 13 13 13 13 13 13 13 13 13 13 13 13 13 13 13 13 13 13 13 13 13 13 13 13 13 13 13 13 13
11 12 12 12 12 13 13 13 13 13 13 13 13 13 12 12 11 11 12 12 12 12 12 12 12 13 13 13 13 13 13 13 13 13 13 13 13 13 13 13 13 13 13 13 13 13 13 13 13
10 11 11 11 11 11 12 12 12 12 12 13 12 12 12 11 11 11 11 11 11 12 12 12 12 12 12 12 13 13 13 13 13 12 12 12 13 13 13 13 13 13 13 13 13 13 12 12 13
10 10 10 10 10 11 11 11 11 11 12 12 12 11 11 11 11 10 11 11 11 11 11 11 11 12 12 12 12 12 12 12 12 12 12 12 12 13 12 12 12 12 12 12 12 12 12 12 12
9 9 9 10 10 10 10 9 10 11 11 11 11 10 10 10 10 10 10 10 10 11 11 11 11 11 11 11 12 12 12 12 12 12 12 12 12 12 12 12 12 12 12 12 12 12 12 12 12
9 8 8 9 10 10 9 8 9 10 10 10 10 10 10 9 9 9 10 10 10 10 10 11 11 11 11 11 11 11 12 12 12 12 12 12 12 12 12 12 12 12 12 12 12 12 12 12 12
7 7 7 8 9 9 9 8 9 10 10 9 9 9 9 9 9 9 9 9 10 10 10 10 10 10 11 11 11 11 11 11 11 12 12 12 12 11 12 12 12 12 12 12 12 11 12 12 11
6 7 7 8 9 9 8 7 8 9 9 9 9 9 9 8 8 9 9 9 9 9 10 10 10 10 10 10 10 11 11 11 11 11 11 11 11 11 11 11 11 12 12 12 11 11 11 11 11
6 7 7 7 9 8 7 7 8 8 8 8 8 8 8 8 8 8 8 8 8 9 9 9 10 10 10 10 10 10 10 10 10 11 11 11 11 11 11 11 11 11 11 11 11 11 11 11 11
6 6 6 7 8 7 7 7 7 7 7 7 7 6 7 7 7 7 7 8 8 8 8 9 9 9 9 10 10 10 10 10 10 10 10 11 11 11 11 11 11 11 11 11 11 11 11 11 11
5 5 5 5 6 7 6 6 6 7 6 6 6 6 6 6 6 6 6 7 7 7 8 8 8 9 9 9 9 9 9 9 9 9 10 10 10 11 10 11 11 11 11 11 11 11 11 11 10
4 5 5 5 4 4 6 4 5 5 5 5 5 5 5 5 5 5 5 6 6 7 7 7 8 8 8 8 9 9 9 9 9 9 9 9 10 10 10 10 10 10 10 10 10 11 10 11 10
4 5 5 5 4 4 4 4 3 5 4 4 4 4 4 4 4 4 4 5 5 6 6 7 7 7 8 8 8 8 8 9 9 9 9 9 9 9 9 10 10 10 10 10 10 10 10 10 10
4 4 4 4 4 3 3 3 3 3 3 3 3 3 3 3 3 3 4 4 5 5 5 6 7 7 7 7 8 8 8 8 8 8 8 8 8 9 9 9 9 10 10 10 10 10 10 10 10
3 2 2 2 2 3 4 3 2 2 2 3 2 2 2 2 2 2 3 3 4 4 5 5 6 6 6 7 7 7 7 7 8 8 8 8 8 8 8 9 9 9 9 9 9 10 10 10 10
1 1 1 1 2 2 3 2 1 2 2 1 1 1 1 1 1 1 2 2 3 3 4 4 5 5 6 6 6 7 7 7 7 8 8 8 8 8 8 8 9 9 9 9 9 9 9 9 9
1 1 1 1 1 1 2 2 1 1 1 0 0 -0 -0 -0 -0 0 1 1 2 2 3 4 4 5 5 5 6 6 6 6 7 7 7 7 8 8 8 8 8 8 8 9 9 9 9 9 9
1 1 0 -0 0 1 1 1 -0 -1 -1 -1 -1 -1 -2 -1 -1 -1 -0 0 1 2 2 3 3 4 5 5 5 5 6 6 6 6 7 7 7 7 8 8 8 8 8 8 8 8 8 8 8
-0 -0 -1 -1 -0 -0 0 -1 -1 -1 -2 -2 -2 -2 -2 -2 -2 -1 -1 -1 -0 1 2 2 3 3 4 4 5 5 5 5 6 6 6 7 7 7 7 7 8 8 8 8 8 8 8 8 8
-1 -1 -2 -2 -2 -1 -1 -2 -1 -2 -2 -2 -2 -2 -3 -3 -3 -2 -2 -2 -1 -0 1 2 2 3 3 4 4 5 5 5 5 6 6 6 6 7 7 7 7 7 8 8 8 8 8 8 8
Wind_Speed
14 13 6 3 3 5 8 7 6 4 1 2 4 2 3 3 3 6 5 7 13 15 17 17 16 16 15 15 14 14 13 13 13 13 13 13 13 13 13 13 13 14 15 15 16 16 17 17 17
12 8 4 3 5 7 7 9 8 3 3 4 3 3 3 4 7 7 6 9 13 14 16 16 17 16 16 15 15 14 13 13 13 13 13 13 13 13 14 13 14 14 15 15 16 16 16 16 15
10 7 4 4 6 8 6 4 4 1 5 4 2 1 1 3 6 5 7 10 12 13 15 17 17 16 16 15 15 14 13 13 13 13 13 13 13 13 14 14 14 15 15 15 15 15 15 15 14
4 3 4 6 12 9 7 2 1 3 4 2 2 3 3 6 4 6 10 10 12 12 14 17 17 16 16 15 15 14 13 13 12 12 12 13 13 13 14 14 14 15 15 15 15 14 14 14 12
4 4 6 9 13 9 6 3 0 2 5 3 2 2 5 5 7 8 9 10 11 11 13 16 16 17 16 15 15 14 13 12 12 12 12 12 13 13 14 14 14 15 14 14 14 13 13 12 11
4 4 7 11 12 10 6 4 2 2 3 3 2 2 4 4 6 5 7 8 10 11 12 15 15 16 15 15 15 14 13 13 12 12 12 12 13 13 13 14 14 14 14 13 13 13 12 11 9
4 5 8 10 10 9 7 4 3 3 3 2 2 2 5 4 4 5 6 8 9 10 10 11 13 14 15 15 14 14 14 13 12 12 12 12 12 13 13 14 14 14 13 13 13 12 12 11 9
4 4 8 10 11 9 5 3 2 2 2 1 1 1 3 3 4 6 6 7 9 10 9 8 9 11 12 13 14 14 14 13 13 12 13 13 13 13 13 13 13 13 13 12 12 12 11 10 8
5 6 9 9 8 5 2 2 1 1 1 2 3 4 6 7 6 7 6 7 7 8 7 7 7 8 10 11 12 13 13 13 13 12 14 13 11 12 12 13 13 13 13 12 12 11 11 9 7
4 7 10 5 5 3 3 3 1 2 1 1 3 7 8 7 6 7 7 7 7 7 6 6 6 6 8 9 10 10 10 11 11 11 12 10 10 11 12 14 14 13 13 12 11 11 10 8 5
5 8 6 6 6 5 4 4 2 2 2 0 1 3 5 6 6 6 6 6 6 6 6 5 5 6 6 6 7 7 8 8 9 10 10 9 10 11 11 11 11 12 11 9 9 9 7 6 6
7 8 6 5 6 5 3 4 3 1 1 2 1 4 4 5 6 6 6 5 5 5 5 5 5 4 5 5 5 6 6 6 6 8 8 8 7 7 8 8 9 9 8 8 8 6 6 6 7
9 8 5 5 5 4 3 3 3 3 2 2 3 2 4 4 4 4 5 5 5 5 5 5 5 4 3 3 4 5 4 5 7 7 7 7 6 5 6 7 8 8 8 7 5 5 5 5 6
6 6 6 6 4 4 3 4 4 4 1 1 1 1 1 2 3 3 3 5 5 5 5 5 5 4 3 3 3 3 4 6 7 7 7 7 7 6 5 5 5 6 7 6 6 6 5 5 6
7 7 8 6 5 4 3 6 6 3 1 1 1 1 1 1 1 2 2 3 5 5 5 5 5 4 4 3 3 4 5 6 5 6 8 7 7 7 6 5 4 5 7 7 6 6 6 5 5
7 7 7 5 4 4 4 7 4 1 0 1 2 1 1 1 1 1 1 1 3 5 6 6 5 5 4 3 3 3 5 6 5 7 8 8 7 8 7 5 4 6 7 6 4 4 4 4 4
4 6 7 5 4 3 5 6 2 0 1 2 2 2 1 1 2 2 1 1 2 4 5 5 5 5 4 3 3 3 4 4 5 6 6 7 8 8 7 5 5 7 6 5 4 4 4 4 4
4 5 6 6 4 4 7 6 2 0 1 2 2 2 2 1 2 2 1 1 1 3 4 5 5 5 4 3 3 3 3 3 4 5 5 7 7 8 8 5 6 7 4 3 3 5 5 5 5
7 6 7 6 3 4 7 7 3 1 1 2 2 2 2 2 2 2 3 2 1 2 4 4 4 5 4 4 4 4 4 3 3 3 6 6 7 7 7 5 5 5 4 4 5 5 7 4 4
6 6 6 4 5 6 5 5 3 2 2 1 2 2 2 3 3 3 3 2 1 1 2 4 4 4 5 4 4 3 4 3 3 3 4 6 6 7 7 5 4 4 4 4 4 5 4 3 3
7 5 7 7 7 7 4 5 4 2 0 2 3 3 2 2 2 3 4 3 2 1 1 2 4 4 4 5 4 4 3 3 3 2 3 3 6 7 7 6 5 5 4 4 4 4 5 5 2
7 7 8 8 6 4 3 4 3 3 1 2 3 3 4 3 2 2 3 3 3 2 1 0 3 4 4 5 6 7 5 4 3 3 2 3 5 6 7 6 6 5 4 5 4 4 3 5 4
7 10 10 8 7 6 4 4 3 2 2 2 3 4 5 5 5 4 4 4 4 3 2 1 1 2 4 5 6 7 5 3 3 4 4 3 3 5 6 7 6 4 4 4 4 4 3 3 4
9 8 7 6 5 5 6 4 2 1 2 3 4 4 5 6 6 6 6 5 4 5 3 2 0 1 3 4 5 6 6 6 6 5 5 4 3 3 4 6 5 5 4 4 4 4 4 3 3
6 3 1 1 3 4 3 3 1 2 4 4 4 6 6 6 6 6 7 7 5 5 5 3 1 1 2 4 5 5 6 7 7 6 6 5 3 3 4 4 4 4 4 5 5 4 4 3 3
5 2 1 2 3 3 2 3 2 3 5 7 7 6 7 8 7 7 7 6 5 5 5 4 3 1 1 3 4 5 5 5 5 5 5 6 4 4 4 4 4 5 6 5 5 3 3 3 3
5 2 3 3 4 3 2 2 1 5 8 9 10 9 9 9 9 8 7 7 6 6 5 5 4 2 1 1 3 4 4 5 5 5 4 4 4 4 5 5 4 4 5 5 4 3 4 3 3
3 4 3 2 2 3 3 2 1 5 7 9 10 10 10 10 10 9 7 7 6 6 5 5 4 3 2 1 1 2 3 3 4 5 5 5 5 5 5 5 5 5 5 5 4 4 4 4 3
3 2 3 3 2 2 3 1 3 4 5 6 8 8 8 8 8 8 8 7 6 6 5 5 4 3 2 1 1 2 3 3 3 4 5 5 5 6 6 6 6 6 6 5 5 5 5 5 4
2 3 2 2 3 3 3 2 3 5 6 6 7 7 7 7 8 7 8 7 7 7 6 6 5 3 3 2 1 2 2 2 3 3 4 4 5 5 6 6 6 6 6 6 6 6 6 5 5
Wind_Direction
303 281 260 257 239 230 234 238 253 249 232 22 22 9 1 7 29 104 139 123 120 130 138 142 138 137 134 131 128 125 124 122 121 122 122 119 116 114 112 110 108 105 103 102 101 98 95 91 88
294 285 262 237 233 229 226 226 239 243 92 56 28 1 12 55 71 102 118 116 123 129 137 142 138 137 136 133 130 127 126 124 124 123 122 121 118 114 110 108 107 105 104 103 101 100 98 94 90
279 269 247 226 231 231 233 210 201 177 98 112 137 57 8 57 84 103 114 123 125 129 137 138 138 137 137 135 133 130 128 128 127 125 122 120 117 115 113 109 105 103 103 103 103 101 100 96 92
271 235 240 237 236 234 254 266 108 138 124 134 148 122 102 43 55 94 117 127 129 129 132 138 139 138 137 135 135 133 131 130 130 127 124 122 119 117 115 111 107 106 104 104 104 103 101 98 93
246 239 225 231 238 240 250 279 309 164 165 162 168 161 107 51 62 95 122 127 130 129 129 140 139 140 138 138 136 134 133 133 130 128 126 125 122 119 117 114 111 109 108 107 105 104 102 99 94
244 234 228 229 230 231 235 240 224 198 177 160 172 200 100 79 85 111 121 123 125 126 128 139 137 139 141 141 140 137 135 134 132 130 128 126 124 122 119 117 115 112 111 110 109 106 104 101 96
251 244 239 243 238 231 231 222 203 206 196 182 175 189 115 87 96 116 114 115 116 115 120 134 137 135 136 138 141 139 138 135 133 131 128 127 128 127 122 119 118 115 113 113 113 110 106 102 97
268 270 245 243 242 236 231 226 227 232 192 171 106 140 122 106 107 107 107 108 112 116 120 126 134 135 133 133 136 136 136 134 132 129 128 128 129 129 126 122 120 119 118 117 115 113 109 106 100
267 248 240 240 246 245 269 249 224 351 106 75 59 56 92 109 110 109 106 103 107 115 123 128 130 132 134 137 136 132 132 134 134 131 134 132 133 133 131 127 125 123 123 124 123 120 118 114 106
229 233 239 257 291 284 291 284 273 173 177 118 59 64 91 114 123 126 130 129 127 128 130 131 130 128 133 140 140 142 140 142 141 140 145 149 140 133 127 130 130 129 129 131 134 135 133 127 120
231 239 260 287 316 322 317 308 317 219 209 160 105 102 115 130 138 145 148 144 145 142 135 131 123 128 128 130 142 144 143 150 147 151 154 143 129 127 126 130 130 132 137 139 141 147 150 139 126
246 257 273 292 314 316 306 301 297 307 307 23 57 117 125 143 158 164 161 156 153 149 138 127 117 118 124 131 140 142 144 149 144 149 147 137 132 133 141 143 149 149 151 147 156 161 145 131 126
243 252 261 292 319 320 328 297 283 297 330 36 46 88 145 162 162 169 165 166 164 158 145 136 129 128 121 120 134 140 141 146 142 145 149 138 133 138 137 141 147 148 152 153 150 129 117 105 101
261 264 256 257 260 272 284 291 279 280 334 39 48 46 150 177 169 171 173 174 174 165 153 144 142 133 123 129 134 133 135 140 141 145 147 141 136 137 140 133 135 137 144 145 136 124 113 101 99
259 256 247 240 235 235 261 256 247 270 15 17 336 340 19 10 150 192 206 178 174 165 156 151 152 139 139 139 139 132 138 140 139 147 149 145 140 139 136 129 127 134 137 132 122 115 107 103 99
244 241 238 234 228 225 231 247 241 236 233 264 281 293 328 328 323 278 262 202 168 161 156 156 159 154 143 134 125 126 140 139 140 144 151 146 143 141 131 127 129 135 132 126 119 115 106 102 90
235 244 248 246 210 221 227 247 218 206 214 260 282 291 302 311 314 323 293 236 167 153 156 156 153 155 153 141 117 112 119 124 131 138 144 147 148 148 134 132 134 132 129 131 133 122 119 113 102
269 257 254 251 230 240 235 241 217 267 246 253 276 285 290 299 302 325 336 346 149 139 145 155 155 154 151 140 128 118 111 109 124 132 138 139 146 150 136 134 138 134 126 135 136 130 117 113 110
281 280 273 274 275 259 243 243 226 221 294 280 268 300 326 316 321 349 4 10 51 121 141 150 157 159 152 152 152 149 152 143 131 122 135 140 149 151 142 140 139 134 135 146 141 130 126 121 119
288 285 290 297 290 274 255 253 247 208 228 315 349 330 330 339 348 349 353 5 27 62 129 157 159 166 163 161 161 156 152 149 134 118 137 148 152 151 148 143 144 140 137 132 133 132 133 140 145
288 276 284 288 299 267 250 250 232 232 274 322 325 326 328 327 334 336 339 339 346 356 102 159 171 169 168 156 145 135 126 123 128 138 147 151 153 155 155 152 147 147 143 145 145 145 145 157 171
292 300 295 283 279 266 228 258 242 231 261 316 323 330 348 351 356 347 334 330 320 314 348 140 172 169 167 162 158 153 154 155 157 161 156 152 152 156 157 156 153 149 146 148 154 146 149 153 162
294 301 291 274 267 275 252 244 252 207 269 306 334 356 10 6 4 1 349 332 336 338 347 346 136 173 172 168 166 161 161 156 145 146 150 158 154 158 160 159 156 153 155 152 150 145 152 158 159
310 299 287 255 251 251 238 225 274 260 281 313 343 4 11 7 5 3 357 354 351 349 349 344 175 181 179 171 169 168 165 156 151 152 161 165 164 161 160 159 157 160 159 159 154 157 168 171 164
335 335 328 256 222 236 218 213 217 18 20 15 13 10 11 10 4 359 358 357 353 354 343 336 319 217 193 183 178 177 171 167 165 167 169 165 166 170 173 167 164 160 161 162 157 155 167 170 168
313 307 277 261 255 286 226 200 138 52 39 32 28 22 15 12 3 358 353 353 351 351 351 339 335 324 232 198 190 180 174 172 173 171 170 172 176 176 172 170 167 164 160 159 158 153 164 161 168
330 316 290 282 278 257 226 170 124 22 29 23 19 18 10 4 360 353 352 352 353 348 346 337 329 334 319 241 203 187 182 179 173 172 175 174 168 166 165 168 167 168 164 161 157 160 169 166 171
321 317 325 304 296 275 255 233 306 352 3 9 13 9 2 357 354 351 350 348 345 341 342 344 329 317 300 268 207 197 194 189 181 176 179 177 172 167 168 173 173 173 170 166 162 163 169 170 175
334 339 327 289 271 277 285 314 11 12 15 10 7 1 355 351 348 348 347 342 343 344 345 346 332 333 323 291 228 192 200 199 190 183 182 182 177 175 176 177 177 179 177 172 169 173 171 176 179
21 354 337 302 300 284 283 289 12 23 15 13 360 354 354 355 353 354 352 347 349 347 347 345 338 329 320 304 270 199 192 189 190 186 184 182 185 184 183 179 180 181 178 176 174 178 178 181 185
Height
1499 1501 1503 1506 1508 1508 1503 1493 1485 1484 1484 1485 1486 1488 1490 1493 1498 1508 1508 1507 1507 1508 1512 1515 1518 1521 1524 1527 1529 1531 1533 1535 1536 1538 1540 1541 1543 1544 1545 1547 1548 1549 1550 1551 1552 1553 1554 1555 1556
1499 1501 1505 1505 1506 1507 1498 1488 1486 1484 1485 1487 1489 1490 1492 1496 1499 1503 1505 1507 1508 1509 1512 1515 1518 1521 1524 1527 1529 1531 1533 1535 1537 1539 1541 1543 1544 1545 1547 1548 1550 1551 1552 1553 1554 1555 1556 1557 1558
1499 1501 1504 1501 1500 1498 1492 1483 1483 1483 1485 1488 1491 1493 1496 1499 1501 1503 1505 1507 1508 1510 1512 1515 1519 1522 1525 1527 1530 1532 1534 1536 1538 1540 1542 1544 1545 1547 1548 1549 1551 1552 1553 1554 1556 1557 1558 1559 1560
1500 1502 1502 1500 1495 1488 1485 1481 1481 1483 1486 1489 1491 1495 1498 1501 1502 1503 1505 1507 1509 1511 1513 1516 1519 1522 1525 1528 1530 1532 1535 1537 1539 1541 1543 1545 1546 1548 1549 1551 1552 1554 1555 1556 1557 1558 1560 1561 1562
1499 1500 1499 1496 1490 1484 1482 1481 1482 1484 1487 1490 1492 1495 1498 1501 1502 1503 1505 1507 1509 1511 1513 1517 1520 1523 1525 1528 1530 1533 1535 1537 1539 1541 1543 1545 1547 1549 1550 1552 1553 1555 1556 1557 1558 1560 1561 1562 1564
1499 1495 1496 1492 1485 1482 1481 1482 1483 1485 1487 1490 1492 1495 1499 1501 1502 1504 1506 1508 1509 1511 1513 1517 1520 1523 1525 1528 1530 1533 1535 1538 1540 1542 1544 1546 1548 1549 1551 1553 1554 1556 1557 1558 1560 1561 1562 1564 1565
1497 1493 1490 1485 1483 1481 1481 1481 1483 1485 1487 1490 1492 1495 1498 1500 1501 1504 1506 1508 1510 1511 1514 1517 1520 1523 1526 1528 1531 1533 1536 1538 1540 1542 1544 1546 1548 1550 1552 1553 1555 1557 1558 1560 1561 1562 1564 1565 1567
1494 1492 1486 1483 1482 1481 1480 1481 1483 1485 1487 1490 1492 1495 1498 1500 1501 1503 1506 1508 1510 1512 1514 1516 1519 1522 1525 1528 1530 1533 1535 1538 1540 1542 1544 1546 1548 1550 1552 1554 1556 1557 1559 1560 1562 1564 1565 1567 1568
1493 1494 1487 1483 1481 1480 1481 1481 1483 1486 1488 1490 1493 1495 1497 1499 1500 1503 1505 1507 1509 1511 1514 1516 1518 1521 1524 1527 1530 1533 1535 1538 1540 1542 1544 1546 1548 1550 1552 1554 1556 1558 1560 1561 1563 1564 1566 1568 1569
1490 1490 1484 1482 1481 1482 1482 1483 1484 1486 1488 1491 1493 1495 1496 1498 1499 1501 1503 1505 1507 1510 1513 1515 1518 1520 1523 1526 1529 1532 1534 1537 1539 1541 1544 1546 1548 1550 1552 1554 1556 1558 1560 1562 1564 1565 1567 1569 1570
1487 1485 1483 1484 1484 1484 1484 1484 1485 1486 1489 1491 1493 1495 1496 1497 1499 1500 1502 1504 1507 1509 1512 1514 1517 1519 1522 1525 1528 1531 1533 1536 1539 1541 1543 1546 1548 1550 1552 1554 1556 1558 1560 1562 1564 1566 1567 1569 1571
1486 1484 1485 1485 1485 1485 1486 1486 1487 1488 1490 1491 1493 1494 1495 1497 1498 1500 1502 1504 1507 1509 1511 1514 1516 1518 1521 1524 1527 1529 1532 1535 1537 1540 1543 1545 1547 1549 1551 1553 1555 1558 1560 1562 1564 1566 1568 1570 1571
1485 1484 1486 1487 1486 1486 1487 1487 1488 1488 1490 1491 1492 1493 1495 1497 1498 1500 1502 1504 1506 1508 1510 1512 1515 1517 1520 1523 1525 1528 1531 1534 1536 1539 1542 1544 1546 1548 1551 1553 1555 1557 1560 1562 1564 1566 1568 1569 1571
1484 1485 1485 1486 1486 1486 1487 1488 1488 1488 1489 1490 1492 1493 1494 1496 1498 1499 1501 1503 1505 1507 1509 1511 1513 1516 1519 1521 1524 1527 1529 1532 1535 1538 1540 1543 1545 1547 1550 1552 1554 1557 1559 1562 1564 1566 1567 1569 1570
1485 1485 1484 1483 1484 1485 1487 1488 1487 1488 1489 1490 1492 1493 1494 1495 1497 1498 1500 1501 1503 1505 1507 1509 1512 1514 1517 1520 1522 1525 1528 1531 1533 1536 1539 1541 1544 1546 1549 1551 1553 1556 1558 1561 1563 1565 1567 1568 1570
1483 1484 1484 1481 1482 1484 1489 1488 1486 1487 1488 1490 1491 1492 1493 1494 1495 1497 1498 1500 1501 1503 1505 1507 1510 1513 1515 1518 1520 1523 1526 1529 1531 1534 1537 1540 1542 1545 1547 1549 1552 1554 1557 1559 1562 1564 1565 1568 1569
1484 1485 1482 1481 1480 1482 1486 1486 1486 1487 1487 1489 1491 1491 1492 1493 1494 1495 1497 1498 1499 1500 1503 1505 1508 1510 1513 1516 1519 1521 1524 1527 1529 1532 1535 1538 1540 1543 1545 1548 1550 1553 1555 1558 1560 1562 1564 1567 1569
1487 1483 1480 1481 1480 1481 1484 1485 1485 1486 1487 1488 1490 1491 1491 1492 1493 1494 1495 1496 1498 1499 1501 1503 1506 1508 1511 1513 1516 1519 1522 1524 1527 1530 1533 1535 1538 1541 1543 1546 1548 1551 1553 1556 1558 1561 1563 1565 1567
1485 1483 1482 1480 1479 1481 1483 1483 1484 1485 1486 1487 1489 1490 1490 1491 1492 1492 1493 1494 1495 1497 1498 1500 1503 1505 1508 1510 1513 1516 1518 1522 1525 1528 1530 1533 1536 1538 1541 1544 1546 1548 1551 1554 1557 1559 1561 1564 1566
1485 1484 1483 1481 1480 1481 1482 1482 1482 1483 1486 1488 1488 1488 1489 1489 1489 1490 1491 1491 1493 1494 1496 1498 1500 1503 1505 1508 1511 1514 1516 1519 1522 1525 1528 1531 1533 1536 1539 1541 1544 1546 1549 1552 1554 1557 1559 1562 1564
1486 1487 1486 1485 1482 1479 1481 1482 1483 1483 1485 1486 1487 1487 1488 1488 1488 1488 1489 1490 1491 1492 1494 1495 1498 1500 1503 1506 1508 1511 1515 1517 1520 1522 1525 1528 1531 1533 1536 1539 1541 1544 1547 1549 1552 1554 1557 1559 1562
1489 1485 1484 1483 1486 1485 1483 1488 1484 1483 1484 1484 1485 1486 1486 1487 1488 1488 1488 1488 1489 1490 1492 1494 1495 1498 1500 1503 1505 1508 1510 1513 1516 1519 1522 1525 1528 1531 1533 1536 1539 1541 1544 1547 1549 1552 1555 1557 1559
1490 1485 1484 1483 1485 1487 1484 1489 1488 1482 1484 1485 1486 1486 1486 1486 1487 1487 1487 1487 1488 1488 1489 1491 1493 1495 1497 1500 1503 1505 1508 1511 1514 1517 1520 1522 1525 1528 1531 1533 1536 1539 1542 1544 1547 1549 1552 1554 1557
1489 1485 1482 1482 1484 1491 1485 1488 1490 1487 1487 1486 1486 1486 1486 1486 1486 1485 1485 1486 1486 1487 1487 1489 1490 1492 1494 1497 1500 1502 1505 1508 1511 1514 1517 1520 1522 1525 1528 1531 1534 1536 1539 1541 1544 1547 1549 1552 1554
1493 1494 1495 1493 1491 1487 1481 1486 1494 1490 1488 1487 1487 1487 1486 1486 1485 1484 1483 1483 1483 1484 1485 1486 1487 1489 1491 1493 1496 1499 1502 1505 1508 1511 1514 1516 1519 1522 1525 1528 1531 1533 1536 1539 1542 1544 1546 1549 1551
1499 1499 1504 1501 1492 1486 1482 1487 1494 1490 1489 1489 1488 1488 1487 1486 1485 1484 1483 1482 1482 1482 1483 1484 1485 1486 1488 1490 1493 1496 1499 1502 1505 1508 1511 1513 1516 1519 1522 1525 1528 1531 1534 1536 1539 1541 1544 1546 1548
1502 1501 1499 1501 1494 1493 1487 1488 1492 1490 1490 1490 1489 1488 1487 1487 1485 1484 1483 1482 1481 1481 1481 1482 1482 1484 1485 1488 1490 1492 1496 1499 1502 1505 1508 1511 1514 1517 1519 1522 1525 1528 1530 1533 1536 1538 1540 1543 1545
1505 1503 1503 1503 1501 1494 1488 1489 1496 1496 1495 1493 1492 1491 1489 1487 1485 1484 1482 1481 1480 1479 1479 1480 1480 1481 1483 1484 1487 1489 1492 1495 1499 1502 1505 1508 1511 1513 1516 1519 1522 1525 1527 1530 1532 1535 1537 1539 1541
1508 1507 1507 1505 1502 1501 1497 1502 1500 1499 1497 1496 1494 1493 1491 1488 1486 1484 1481 1480 1479 1478 1477 1477 1478 1479 1480 1481 1484 1487 1489 1492 1495 1498 1501 1505 1508 1510 1513 1516 1519 1521 1524 1526 1529 1531 1534 1536 1538
1510 1511 1512 1513 1509 1504 1504 1510 1501 1499 1498 1496 1495 1493 1491 1488 1486 1483 1481 1479 1477 1476 1475 1474 1475 1476 1477 1478 1480 1483 1486 1489 1492 1494 1498 1501 1504 1507 1510 1512 1515 1518 1520 1523 1525 1528 1530 1532 1534